EJM206 KBZN-KMFR

Flight info

Callsign EJM206
Flight time 2h 0m
Altitude 36000
Route BGSKY2 HIA
Aircraft C550/L-SDFGHRWY/S

Departure

Time 2026-04-29 19:33
Airport Bozeman Yellowstone International Airport (KBZN)

Arrival

Time 2026-04-29 21:33
Airport Rogue Valley International-Medford Airport (KMFR)
Time Latitude Longitude Altitude Speed Heading
2026-04-29 18:59 45.77289 -111.15107 4475 ft 0 kts 317°
2026-04-29 19:07 45.77314 -111.15132 4475 ft 0 kts 331°
2026-04-29 19:07 45.77314 -111.15133 4475 ft 0 kts 331°
2026-04-29 19:21 45.77321 -111.15138 4475 ft 4 kts 331°
2026-04-29 19:22 45.77364 -111.15142 4475 ft 7 kts 43°
2026-04-29 19:22 45.77403 -111.15110 4475 ft 6 kts 345°
2026-04-29 19:22 45.77431 -111.15141 4475 ft 6 kts 316°
2026-04-29 19:22 45.77475 -111.15202 4475 ft 12 kts 316°
2026-04-29 19:23 45.77547 -111.15300 4475 ft 17 kts 316°
2026-04-29 19:23 45.77643 -111.15435 4475 ft 21 kts 315°
2026-04-29 19:23 45.77740 -111.15573 4475 ft 17 kts 316°
2026-04-29 19:23 45.77815 -111.15675 4475 ft 12 kts 316°
2026-04-29 19:24 45.77867 -111.15748 4475 ft 10 kts 316°
2026-04-29 19:24 45.77916 -111.15815 4475 ft 10 kts 315°
2026-04-29 19:24 45.77969 -111.15891 4475 ft 12 kts 315°
2026-04-29 19:24 45.78030 -111.15977 4475 ft 13 kts 315°
2026-04-29 19:25 45.78097 -111.16070 4475 ft 14 kts 315°
2026-04-29 19:25 45.78168 -111.16170 4475 ft 15 kts 316°
2026-04-29 19:25 45.78243 -111.16275 4475 ft 16 kts 316°
2026-04-29 19:25 45.78323 -111.16384 4475 ft 16 kts 316°
2026-04-29 19:26 45.78406 -111.16498 4475 ft 17 kts 315°
2026-04-29 19:26 45.78488 -111.16616 4475 ft 17 kts 315°
2026-04-29 19:26 45.78575 -111.16737 4475 ft 18 kts 316°
2026-04-29 19:26 45.78655 -111.16827 4475 ft 12 kts 357°
2026-04-29 19:27 45.78712 -111.16775 4475 ft 8 kts 46°
2026-04-29 19:27 45.78738 -111.16730 4475 ft 0 kts 58°
2026-04-29 19:31 45.78744 -111.16716 4475 ft 6 kts 58°
2026-04-29 19:32 45.78769 -111.16618 4475 ft 10 kts 90°
2026-04-29 19:32 45.78725 -111.16525 4475 ft 23 kts 133°
2026-04-29 19:32 45.78496 -111.16208 4475 ft 65 kts 136°
2026-04-29 19:32 45.78062 -111.15600 4475 ft 111 kts 135°
2026-04-29 19:33 45.77419 -111.14719 4609 ft 135 kts 137°
2026-04-29 19:33 45.76695 -111.13815 4931 ft 140 kts 139°
2026-04-29 19:33 45.75942 -111.12943 5318 ft 138 kts 141°
2026-04-29 19:33 45.75152 -111.12076 5615 ft 151 kts 142°
2026-04-29 19:34 45.74277 -111.11153 5998 ft 161 kts 143°
2026-04-29 19:34 45.73398 -111.10252 6753 ft 148 kts 145°
2026-04-29 19:34 45.72442 -111.09735 7236 ft 154 kts 187°
2026-04-29 19:34 45.71529 -111.10488 7654 ft 160 kts 236°
2026-04-29 19:35 45.70982 -111.11937 8075 ft 172 kts 244°
2026-04-29 19:35 45.70439 -111.13544 8478 ft 186 kts 242°
2026-04-29 19:35 45.69782 -111.15221 8873 ft 200 kts 235°
2026-04-29 19:35 45.68875 -111.16787 9264 ft 213 kts 223°
2026-04-29 19:36 45.67703 -111.18162 9659 ft 224 kts 214°
2026-04-29 19:36 45.66404 -111.19498 10045 ft 237 kts 224°
2026-04-29 19:36 45.65634 -111.21617 10437 ft 250 kts 258°
2026-04-29 19:36 45.65721 -111.24148 10838 ft 262 kts 278°
2026-04-29 19:37 45.66239 -111.26705 11225 ft 272 kts 286°
2026-04-29 19:37 45.66678 -111.28394 11480 ft 277 kts 288°
2026-04-29 19:37 45.67631 -111.31873 11990 ft 285 kts 287°
2026-04-29 19:37 45.68332 -111.34546 12370 ft 289 kts 285°
2026-04-29 19:38 45.68987 -111.37284 12751 ft 293 kts 284°
2026-04-29 19:38 45.69623 -111.40087 13133 ft 298 kts 284°
2026-04-29 19:38 45.70253 -111.42932 13510 ft 303 kts 284°
2026-04-29 19:38 45.70891 -111.45835 13889 ft 309 kts 284°
2026-04-29 19:39 45.71527 -111.48763 14262 ft 314 kts 284°
2026-04-29 19:39 45.72177 -111.51778 14640 ft 320 kts 284°
2026-04-29 19:39 45.72842 -111.54845 15019 ft 325 kts 284°
2026-04-29 19:39 45.73519 -111.57958 15397 ft 330 kts 284°
2026-04-29 19:40 45.74208 -111.61125 15817 ft 334 kts 284°
2026-04-29 19:40 45.74901 -111.64317 16292 ft 336 kts 285°
2026-04-29 19:40 45.75596 -111.67515 16815 ft 336 kts 285°
2026-04-29 19:40 45.76290 -111.70712 17340 ft 336 kts 285°
2026-04-29 19:41 45.76982 -111.73906 17865 ft 335 kts 285°
2026-04-29 19:41 45.77670 -111.77089 18389 ft 334 kts 285°
2026-04-29 19:41 45.78357 -111.80275 18881 ft 335 kts 285°
2026-04-29 19:41 45.79036 -111.83423 19329 ft 336 kts 285°
2026-04-29 19:42 45.79733 -111.86666 19753 ft 338 kts 285°
2026-04-29 19:42 45.79957 -111.87711 19875 ft 339 kts 285°
2026-04-29 19:42 45.81119 -111.93139 20469 ft 346 kts 285°
2026-04-29 19:42 45.81827 -111.96457 20822 ft 350 kts 285°
2026-04-29 19:43 45.82541 -111.99808 21173 ft 353 kts 285°
2026-04-29 19:43 45.83262 -112.03192 21528 ft 355 kts 284°
2026-04-29 19:43 45.83983 -112.06579 21949 ft 355 kts 284°
2026-04-29 19:43 45.84703 -112.09969 22396 ft 353 kts 284°
2026-04-29 19:44 45.85239 -112.13387 22844 ft 348 kts 272°
2026-04-29 19:44 45.85168 -112.16830 23278 ft 344 kts 261°
2026-04-29 19:44 45.84750 -112.20203 23649 ft 344 kts 255°
2026-04-29 19:44 45.84151 -112.23523 23987 ft 344 kts 252°
2026-04-29 19:45 45.83467 -112.26767 24274 ft 345 kts 250°
2026-04-29 19:45 45.82718 -112.30043 24553 ft 346 kts 249°
2026-04-29 19:45 45.81937 -112.33317 24829 ft 347 kts 249°
2026-04-29 19:45 45.81138 -112.36585 25105 ft 347 kts 248°
2026-04-29 19:46 45.80593 -112.38789 25288 ft 347 kts 248°
2026-04-29 19:46 45.79778 -112.42056 25514 ft 348 kts 248°
2026-04-29 19:46 45.78954 -112.45331 25720 ft 350 kts 248°
2026-04-29 19:46 45.78136 -112.48566 25918 ft 350 kts 248°
2026-04-29 19:47 45.77291 -112.51898 26122 ft 351 kts 247°
2026-04-29 19:47 45.76456 -112.55179 26322 ft 351 kts 247°
2026-04-29 19:47 45.75628 -112.58426 26491 ft 352 kts 247°
2026-04-29 19:47 45.74785 -112.61727 26625 ft 353 kts 247°
2026-04-29 19:48 45.73937 -112.65031 26740 ft 355 kts 247°
2026-04-29 19:48 45.73083 -112.68355 26843 ft 356 kts 247°
2026-04-29 19:48 45.72224 -112.71691 26944 ft 357 kts 247°
2026-04-29 19:48 45.71363 -112.75029 27045 ft 358 kts 247°
2026-04-29 19:49 45.70497 -112.78383 27202 ft 357 kts 247°
2026-04-29 19:49 45.69647 -112.81674 27598 ft 349 kts 246°
2026-04-29 19:49 45.68811 -112.84914 27986 ft 344 kts 246°
2026-04-29 19:49 45.67982 -112.88114 28263 ft 341 kts 246°
2026-04-29 19:50 45.67171 -112.91242 28533 ft 339 kts 246°
2026-04-29 19:50 45.66350 -112.94398 28807 ft 338 kts 246°
2026-04-29 19:50 45.65533 -112.97534 29081 ft 336 kts 246°
2026-04-29 19:50 45.64714 -113.00671 29357 ft 334 kts 246°
2026-04-29 19:51 45.63903 -113.03775 29614 ft 333 kts 246°
2026-04-29 19:51 45.63093 -113.06872 29845 ft 333 kts 245°
2026-04-29 19:51 45.62282 -113.09963 30070 ft 332 kts 245°
2026-04-29 19:51 45.61472 -113.13050 30276 ft 333 kts 245°
2026-04-29 19:52 45.60652 -113.16164 30421 ft 335 kts 245°
2026-04-29 19:52 45.59829 -113.19289 30551 ft 337 kts 245°
2026-04-29 19:52 45.59013 -113.22382 30676 ft 338 kts 246°
2026-04-29 19:52 45.58180 -113.25537 30802 ft 339 kts 245°
2026-04-29 19:53 45.57345 -113.28694 30927 ft 340 kts 245°
2026-04-29 19:53 45.56507 -113.31861 31053 ft 341 kts 245°
2026-04-29 19:53 45.55667 -113.35034 31178 ft 342 kts 245°
2026-04-29 19:53 45.54826 -113.38205 31303 ft 342 kts 245°
2026-04-29 19:54 45.53138 -113.44559 31553 ft 343 kts 245°
2026-04-29 19:54 45.52290 -113.47747 31679 ft 343 kts 245°
2026-04-29 19:54 45.51443 -113.50926 31804 ft 343 kts 245°
2026-04-29 19:55 45.50596 -113.54098 31928 ft 343 kts 246°
2026-04-29 19:55 45.49746 -113.57280 32054 ft 343 kts 245°
2026-04-29 19:55 45.48898 -113.60450 32178 ft 343 kts 246°
2026-04-29 19:55 45.48048 -113.63620 32303 ft 342 kts 245°
2026-04-29 19:56 45.47196 -113.66797 32429 ft 343 kts 246°
2026-04-29 19:56 45.46344 -113.69968 32554 ft 343 kts 246°
2026-04-29 19:56 45.45486 -113.73154 32679 ft 344 kts 245°
2026-04-29 19:56 45.44625 -113.76350 32805 ft 345 kts 246°
2026-04-29 19:57 45.43764 -113.79540 32930 ft 346 kts 246°
2026-04-29 19:57 45.43190 -113.81664 33013 ft 346 kts 246°
2026-04-29 19:57 45.42043 -113.85906 33179 ft 347 kts 246°
2026-04-29 19:57 45.41173 -113.89115 33304 ft 347 kts 246°
2026-04-29 19:58 45.40304 -113.92322 33429 ft 347 kts 246°
2026-04-29 19:58 45.39432 -113.95530 33554 ft 347 kts 246°
2026-04-29 19:58 45.38561 -113.98734 33679 ft 347 kts 246°
2026-04-29 19:58 45.37689 -114.01938 33804 ft 347 kts 246°
2026-04-29 19:59 45.36815 -114.05141 33929 ft 347 kts 246°
2026-04-29 19:59 45.35940 -114.08347 34054 ft 347 kts 246°
2026-04-29 19:59 45.35067 -114.11539 34178 ft 347 kts 246°
2026-04-29 19:59 45.34193 -114.14733 34303 ft 346 kts 246°
2026-04-29 20:00 45.33317 -114.17934 34429 ft 346 kts 245°
2026-04-29 20:00 45.32445 -114.21116 34554 ft 346 kts 245°
2026-04-29 20:00 45.31582 -114.24262 34678 ft 345 kts 245°
2026-04-29 20:00 45.30707 -114.27442 34803 ft 345 kts 245°
2026-04-29 20:01 45.29832 -114.30615 34928 ft 344 kts 245°
2026-04-29 20:01 45.28960 -114.33774 35052 ft 344 kts 245°
2026-04-29 20:01 45.28085 -114.36937 35163 ft 344 kts 245°
2026-04-29 20:01 45.27213 -114.40090 35264 ft 344 kts 245°
2026-04-29 20:02 45.25458 -114.46418 35424 ft 345 kts 245°
2026-04-29 20:02 45.23993 -114.51685 35549 ft 346 kts 245°
2026-04-29 20:03 45.22807 -114.55940 35650 ft 346 kts 245°
2026-04-29 20:03 45.21921 -114.59116 35719 ft 347 kts 245°
2026-04-29 20:03 45.20132 -114.65513 35739 ft 351 kts 245°
2026-04-29 20:04 45.18331 -114.71936 35726 ft 355 kts 245°
2026-04-29 20:04 45.16495 -114.78469 35717 ft 358 kts 245°
2026-04-29 20:05 45.14640 -114.85054 35716 ft 361 kts 245°
2026-04-29 20:05 45.12767 -114.91687 35716 ft 363 kts 245°
2026-04-29 20:06 45.10881 -114.98349 35724 ft 365 kts 245°
2026-04-29 20:06 45.08997 -115.04987 35732 ft 366 kts 245°
2026-04-29 20:07 45.07090 -115.11688 35732 ft 367 kts 244°
2026-04-29 20:07 45.05176 -115.18394 35731 ft 368 kts 244°
2026-04-29 20:08 45.03578 -115.23979 35731 ft 369 kts 244°
2026-04-29 20:08 45.01319 -115.31850 35731 ft 370 kts 244°
2026-04-29 20:09 44.99378 -115.38597 35730 ft 370 kts 244°
2026-04-29 20:09 44.97446 -115.45291 35730 ft 371 kts 244°
2026-04-29 20:10 44.95495 -115.52035 35730 ft 371 kts 244°
2026-04-29 20:10 44.93535 -115.58787 35730 ft 372 kts 244°
2026-04-29 20:11 44.91568 -115.65548 35730 ft 372 kts 244°
2026-04-29 20:11 44.89597 -115.72306 35729 ft 372 kts 244°
2026-04-29 20:12 44.87621 -115.79060 35730 ft 372 kts 244°
2026-04-29 20:12 44.85639 -115.85817 35731 ft 372 kts 244°
2026-04-29 20:13 44.83990 -115.91426 35730 ft 372 kts 244°
2026-04-29 20:13 44.81678 -115.99268 35730 ft 373 kts 243°
2026-04-29 20:14 44.79684 -116.06011 35729 ft 373 kts 243°
2026-04-29 20:14 44.77683 -116.12757 35730 ft 373 kts 243°
2026-04-29 20:15 44.75676 -116.19508 35730 ft 374 kts 243°
2026-04-29 20:15 44.73659 -116.26275 35731 ft 374 kts 243°
2026-04-29 20:16 44.71655 -116.32979 35732 ft 374 kts 243°
2026-04-29 20:16 44.69632 -116.39729 35734 ft 375 kts 243°
2026-04-29 20:17 44.67605 -116.46477 35736 ft 375 kts 243°
2026-04-29 20:17 44.65570 -116.53228 35739 ft 375 kts 243°
2026-04-29 20:18 44.63531 -116.59979 35741 ft 375 kts 243°
2026-04-29 20:18 44.61487 -116.66726 35743 ft 376 kts 243°
2026-04-29 20:19 44.59451 -116.73430 35745 ft 376 kts 243°
2026-04-29 20:19 44.57397 -116.80178 35747 ft 376 kts 243°
2026-04-29 20:20 44.55337 -116.86925 35749 ft 376 kts 243°
2026-04-29 20:20 44.53272 -116.93672 35752 ft 377 kts 243°
2026-04-29 20:21 44.51199 -117.00427 35753 ft 377 kts 243°
2026-04-29 20:21 44.49120 -117.07182 35756 ft 377 kts 243°
2026-04-29 20:22 44.47049 -117.13894 35758 ft 378 kts 243°
2026-04-29 20:22 44.44956 -117.20659 35758 ft 378 kts 243°
2026-04-29 20:23 44.42857 -117.27427 35759 ft 379 kts 243°
2026-04-29 20:23 44.40754 -117.34190 35759 ft 379 kts 243°
2026-04-29 20:24 44.38658 -117.40914 35759 ft 380 kts 243°
2026-04-29 20:24 44.36540 -117.47690 35759 ft 380 kts 243°
2026-04-29 20:25 44.34416 -117.54467 35759 ft 381 kts 243°
2026-04-29 20:25 44.32281 -117.61260 35759 ft 381 kts 243°
2026-04-29 20:26 44.30161 -117.67991 35759 ft 382 kts 243°
2026-04-29 20:26 44.28016 -117.74783 35759 ft 382 kts 242°
2026-04-29 20:27 44.26578 -117.79326 35759 ft 382 kts 242°
2026-04-29 20:27 44.23707 -117.88370 35760 ft 383 kts 243°
2026-04-29 20:28 44.21546 -117.95160 35762 ft 383 kts 242°
2026-04-29 20:28 44.19393 -118.01906 35768 ft 383 kts 242°
2026-04-29 20:29 44.17223 -118.08689 35770 ft 383 kts 242°
2026-04-29 20:29 44.15413 -118.14330 35771 ft 383 kts 242°
2026-04-29 20:30 44.13235 -118.21107 35772 ft 383 kts 242°
2026-04-29 20:30 44.11050 -118.27884 35774 ft 383 kts 242°
2026-04-29 20:31 44.08861 -118.34658 35775 ft 384 kts 242°
2026-04-29 20:31 44.06669 -118.41427 35776 ft 384 kts 242°
2026-04-29 20:32 44.04468 -118.48200 35777 ft 384 kts 242°
2026-04-29 20:32 44.02264 -118.54969 35779 ft 384 kts 242°
2026-04-29 20:33 44.00069 -118.61694 35781 ft 385 kts 242°
2026-04-29 20:33 43.97853 -118.68464 35782 ft 385 kts 242°
2026-04-29 20:34 43.95630 -118.75237 35783 ft 386 kts 242°
2026-04-29 20:34 43.93399 -118.82017 35784 ft 386 kts 242°
2026-04-29 20:35 43.91161 -118.88801 35784 ft 387 kts 242°
2026-04-29 20:35 43.88916 -118.95590 35785 ft 387 kts 242°
2026-04-29 20:36 43.86675 -119.02349 35787 ft 388 kts 242°
2026-04-29 20:36 43.84410 -119.09164 35787 ft 389 kts 242°
2026-04-29 20:37 43.82142 -119.15973 35788 ft 389 kts 242°
2026-04-29 20:37 43.79882 -119.22740 35788 ft 390 kts 242°
2026-04-29 20:38 43.77592 -119.29576 35788 ft 391 kts 242°
2026-04-29 20:38 43.75297 -119.36411 35789 ft 392 kts 242°
2026-04-29 20:39 43.72996 -119.43249 35789 ft 392 kts 242°
2026-04-29 20:39 43.70683 -119.50105 35789 ft 393 kts 241°
2026-04-29 20:40 43.68377 -119.56921 35790 ft 394 kts 242°
2026-04-29 20:40 43.66050 -119.63782 35790 ft 394 kts 242°
2026-04-29 20:41 43.63715 -119.70648 35791 ft 395 kts 242°
2026-04-29 20:41 43.61379 -119.77502 35792 ft 395 kts 241°
2026-04-29 20:42 43.59034 -119.84363 35795 ft 395 kts 241°
2026-04-29 20:42 43.56699 -119.91180 35798 ft 395 kts 241°
2026-04-29 20:43 43.54343 -119.98038 35799 ft 395 kts 241°
2026-04-29 20:43 43.51979 -120.04902 35800 ft 396 kts 241°
2026-04-29 20:44 43.49625 -120.11722 35801 ft 396 kts 241°
2026-04-29 20:44 43.47253 -120.18575 35801 ft 397 kts 241°
2026-04-29 20:45 43.44871 -120.25445 35802 ft 397 kts 241°
2026-04-29 20:45 43.42487 -120.32297 35803 ft 397 kts 241°
2026-04-29 20:46 43.40102 -120.39138 35804 ft 397 kts 242°
2026-04-29 20:46 43.37711 -120.45978 35806 ft 397 kts 241°
2026-04-29 20:47 43.35335 -120.52764 35807 ft 397 kts 242°
2026-04-29 20:47 43.32935 -120.59597 35800 ft 397 kts 241°
2026-04-29 20:48 43.30531 -120.66423 35800 ft 397 kts 241°
2026-04-29 20:48 43.28123 -120.73240 35805 ft 396 kts 242°
2026-04-29 20:49 43.25714 -120.80047 35828 ft 396 kts 241°
2026-04-29 20:49 43.23302 -120.86844 35831 ft 396 kts 242°
2026-04-29 20:50 43.20900 -120.93597 35829 ft 396 kts 242°
2026-04-29 20:50 43.18473 -121.00405 35827 ft 397 kts 241°
2026-04-29 20:51 43.16043 -121.07203 35827 ft 397 kts 242°
2026-04-29 20:51 43.13611 -121.13991 35828 ft 397 kts 242°
2026-04-29 20:52 43.11191 -121.20726 35826 ft 397 kts 242°
2026-04-29 20:52 43.08748 -121.27511 35821 ft 397 kts 242°
2026-04-29 20:53 43.06299 -121.34301 35821 ft 397 kts 242°
2026-04-29 20:53 43.03845 -121.41083 35821 ft 397 kts 242°
2026-04-29 20:54 43.00182 -121.51177 35834 ft 397 kts 242°
2026-04-29 20:55 42.97721 -121.57939 35836 ft 397 kts 242°
2026-04-29 20:55 42.95257 -121.64691 35836 ft 397 kts 242°
2026-04-29 20:56 42.92787 -121.71446 35835 ft 397 kts 242°
2026-04-29 20:56 42.90314 -121.78194 35834 ft 397 kts 242°
2026-04-29 20:57 42.87838 -121.84932 35833 ft 397 kts 242°
2026-04-29 20:57 42.85370 -121.91631 35833 ft 397 kts 242°
2026-04-29 20:58 42.82926 -121.98252 35710 ft 376 kts 242°
2026-04-29 20:58 42.81764 -122.01400 35221 ft 370 kts 242°
2026-04-29 20:58 42.80605 -122.04531 34624 ft 367 kts 242°
2026-04-29 20:58 42.79465 -122.07607 34024 ft 360 kts 242°
2026-04-29 20:59 42.78340 -122.10638 33413 ft 356 kts 242°
2026-04-29 20:59 42.77244 -122.13591 32799 ft 352 kts 241°
2026-04-29 20:59 42.76139 -122.16563 32173 ft 350 kts 241°
2026-04-29 20:59 42.75039 -122.19516 31548 ft 349 kts 240°
2026-04-29 21:00 42.73940 -122.22466 30922 ft 348 kts 240°
2026-04-29 21:00 42.72846 -122.25398 30297 ft 347 kts 240°
2026-04-29 21:00 42.71753 -122.28322 29673 ft 347 kts 240°
2026-04-29 21:00 42.70661 -122.31241 29048 ft 346 kts 240°
2026-04-29 21:01 42.69572 -122.34149 28423 ft 344 kts 240°
2026-04-29 21:01 42.68487 -122.37042 27798 ft 342 kts 240°
2026-04-29 21:01 42.67422 -122.39881 27181 ft 340 kts 240°
2026-04-29 21:01 42.66350 -122.42738 26557 ft 338 kts 240°
2026-04-29 21:02 42.65284 -122.45576 25932 ft 336 kts 240°
2026-04-29 21:02 42.64220 -122.48403 25305 ft 334 kts 240°
2026-04-29 21:02 42.63165 -122.51206 24678 ft 331 kts 241°
2026-04-29 21:02 42.62119 -122.53980 24053 ft 329 kts 241°
2026-04-29 21:03 42.61082 -122.56729 23428 ft 326 kts 241°
2026-04-29 21:03 42.60048 -122.59465 22801 ft 324 kts 241°
2026-04-29 21:03 42.59035 -122.62144 22184 ft 322 kts 241°
2026-04-29 21:03 42.58011 -122.64851 21557 ft 321 kts 241°
2026-04-29 21:04 42.56991 -122.67543 20932 ft 320 kts 242°
2026-04-29 21:04 42.55973 -122.70227 20307 ft 319 kts 242°
2026-04-29 21:04 42.54958 -122.72902 19682 ft 319 kts 242°
2026-04-29 21:04 42.53944 -122.75572 19057 ft 317 kts 242°
2026-04-29 21:05 42.52955 -122.78177 18430 ft 302 kts 242°
2026-04-29 21:05 42.52017 -122.80646 17802 ft 289 kts 242°
2026-04-29 21:05 42.51111 -122.83027 17174 ft 279 kts 242°
2026-04-29 21:05 42.50232 -122.85334 16547 ft 272 kts 242°
2026-04-29 21:06 42.49380 -122.87550 15928 ft 265 kts 240°
2026-04-29 21:06 42.48164 -122.89351 15297 ft 258 kts 210°
2026-04-29 21:06 42.46492 -122.90069 14682 ft 251 kts 185°
2026-04-29 21:06 42.44765 -122.90045 14065 ft 247 kts 173°
2026-04-29 21:07 42.43086 -122.89642 13442 ft 244 kts 166°
2026-04-29 21:07 42.41452 -122.89061 12818 ft 242 kts 163°
2026-04-29 21:07 42.40385 -122.88633 12404 ft 241 kts 162°
2026-04-29 21:07 42.38261 -122.87696 11567 ft 239 kts 161°
2026-04-29 21:08 42.36698 -122.86949 10942 ft 238 kts 161°
2026-04-29 21:08 42.35154 -122.86151 10315 ft 236 kts 160°
2026-04-29 21:08 42.33577 -122.85916 9863 ft 228 kts 194°
2026-04-29 21:08 42.32191 -122.86655 9851 ft 203 kts 199°
2026-04-29 21:09 42.30886 -122.86748 9931 ft 179 kts 169°
2026-04-29 21:09 42.29706 -122.86312 9924 ft 177 kts 162°
2026-04-29 21:09 42.28499 -122.85759 9904 ft 194 kts 161°
2026-04-29 21:09 42.27160 -122.85126 9551 ft 207 kts 161°
2026-04-29 21:10 42.25800 -122.84476 9153 ft 207 kts 161°
2026-04-29 21:10 42.24441 -122.83820 8754 ft 207 kts 161°
2026-04-29 21:10 42.23195 -122.82867 8345 ft 208 kts 134°
2026-04-29 21:10 42.22400 -122.81247 7963 ft 208 kts 118°
2026-04-29 21:11 42.21778 -122.79489 7564 ft 208 kts 115°
2026-04-29 21:11 42.21195 -122.77705 7164 ft 207 kts 114°
2026-04-29 21:11 42.20631 -122.75945 6902 ft 199 kts 114°
2026-04-29 21:11 42.20103 -122.74293 6812 ft 185 kts 114°
2026-04-29 21:12 42.19620 -122.72774 6788 ft 171 kts 114°
2026-04-29 21:12 42.19165 -122.71336 6790 ft 171 kts 114°
2026-04-29 21:12 42.18654 -122.69731 6825 ft 201 kts 114°
2026-04-29 21:12 42.18066 -122.67889 6819 ft 226 kts 114°
2026-04-29 21:13 42.17414 -122.65849 6812 ft 246 kts 114°
2026-04-29 21:13 42.16715 -122.63667 6807 ft 260 kts 114°
2026-04-29 21:13 42.16036 -122.61353 6800 ft 271 kts 105°
2026-04-29 21:13 42.16071 -122.58912 6800 ft 252 kts 74°
2026-04-29 21:14 42.16772 -122.56851 6794 ft 235 kts 54°
2026-04-29 21:14 42.18041 -122.55623 6792 ft 222 kts 16°
2026-04-29 21:14 42.19515 -122.55726 6801 ft 211 kts 337°
2026-04-29 21:14 42.20732 -122.56765 6769 ft 206 kts 321°
2026-04-29 21:15 42.21811 -122.58070 6575 ft 210 kts 312°
2026-04-29 21:15 42.22763 -122.59588 6380 ft 213 kts 308°
2026-04-29 21:15 42.23680 -122.61173 6182 ft 216 kts 307°
2026-04-29 21:15 42.24593 -122.62789 5982 ft 217 kts 305°
2026-04-29 21:16 42.25255 -122.64585 5789 ft 217 kts 289°
2026-04-29 21:16 42.25685 -122.66569 5588 ft 217 kts 284°
2026-04-29 21:16 42.26025 -122.68439 5409 ft 201 kts 283°
2026-04-29 21:16 42.26338 -122.70207 5201 ft 187 kts 283°
2026-04-29 21:17 42.26631 -122.71876 4995 ft 179 kts 283°
2026-04-29 21:17 42.26912 -122.73485 4790 ft 173 kts 283°
2026-04-29 21:17 42.27185 -122.75073 4590 ft 175 kts 283°
2026-04-29 21:17 42.27457 -122.76674 4389 ft 173 kts 283°
2026-04-29 21:18 42.27635 -122.77722 4256 ft 173 kts 283°
2026-04-29 21:18 42.28011 -122.79247 4102 ft 170 kts 295°
2026-04-29 21:18 42.28563 -122.80628 4016 ft 163 kts 299°
2026-04-29 21:18 42.29126 -122.81939 3999 ft 160 kts 300°
2026-04-29 21:19 42.29689 -122.83235 3976 ft 161 kts 300°
2026-04-29 21:19 42.30279 -122.84591 3728 ft 172 kts 300°
2026-04-29 21:19 42.30898 -122.86018 3460 ft 179 kts 300°
2026-04-29 21:19 42.31530 -122.87481 3224 ft 181 kts 300°
2026-04-29 21:20 42.32262 -122.88908 2753 ft 192 kts 313°
2026-04-29 21:20 42.33354 -122.89924 2280 ft 192 kts 335°
2026-04-29 21:20 42.34646 -122.90026 1989 ft 185 kts 16°
2026-04-29 21:20 42.35635 -122.89028 1816 ft 177 kts 49°
2026-04-29 21:21 42.36185 -122.87600 1798 ft 173 kts 78°
2026-04-29 21:21 42.36278 -122.86057 2125 ft 156 kts 90°
2026-04-29 21:21 42.36226 -122.84568 2279 ft 162 kts 92°
2026-04-29 21:21 42.36156 -122.83035 2446 ft 165 kts 94°
2026-04-29 21:22 42.35866 -122.81552 2652 ft 164 kts 117°
2026-04-29 21:22 42.35137 -122.80337 2770 ft 168 kts 136°
2026-04-29 21:22 42.34297 -122.79311 2936 ft 158 kts 136°
2026-04-29 21:22 42.33583 -122.78203 3038 ft 157 kts 127°
2026-04-29 21:23 42.32854 -122.77091 3043 ft 160 kts 139°
2026-04-29 21:23 42.31906 -122.76372 3188 ft 158 kts 165°
2026-04-29 21:23 42.30789 -122.76353 3291 ft 162 kts 187°
2026-04-29 21:23 42.29658 -122.76492 3421 ft 164 kts 182°
2026-04-29 21:24 42.28506 -122.76301 3458 ft 170 kts 167°
2026-04-29 21:24 42.27369 -122.75804 3453 ft 173 kts 160°
2026-04-29 21:24 42.26287 -122.75111 3498 ft 172 kts 148°
2026-04-29 21:24 42.25366 -122.74062 3487 ft 175 kts 134°
2026-04-29 21:25 42.24625 -122.72746 3498 ft 176 kts 123°
2026-04-29 21:25 42.23980 -122.71361 3561 ft 173 kts 123°
2026-04-29 21:25 42.23325 -122.70013 3584 ft 170 kts 125°
2026-04-29 21:25 42.22646 -122.68709 3553 ft 170 kts 126°
2026-04-29 21:26 42.22007 -122.67391 3568 ft 168 kts 123°
2026-04-29 21:26 42.21353 -122.66079 3539 ft 169 kts 127°
2026-04-29 21:26 42.20503 -122.64986 3444 ft 172 kts 152°
2026-04-29 21:26 42.19346 -122.64620 3323 ft 172 kts 183°
2026-04-29 21:27 42.18242 -122.65033 3354 ft 164 kts 207°
2026-04-29 21:27 42.17368 -122.65983 3374 ft 160 kts 232°
2026-04-29 21:27 42.16894 -122.67309 3409 ft 160 kts 260°
2026-04-29 21:27 42.17193 -122.68738 3298 ft 169 kts 309°
2026-04-29 21:28 42.18227 -122.69513 3153 ft 175 kts 347°
2026-04-29 21:28 42.19422 -122.69619 3111 ft 175 kts 355°
2026-04-29 21:28 42.20578 -122.70000 3103 ft 168 kts 327°
2026-04-29 21:28 42.21429 -122.71078 2987 ft 171 kts 309°
2026-04-29 21:29 42.22196 -122.72294 2937 ft 169 kts 310°
2026-04-29 21:29 42.22902 -122.73559 2900 ft 166 kts 302°
2026-04-29 21:29 42.23479 -122.74872 2950 ft 162 kts 298°
2026-04-29 21:29 42.24002 -122.76218 2955 ft 161 kts 295°
2026-04-29 21:30 42.24485 -122.77570 2924 ft 162 kts 296°
2026-04-29 21:30 42.25006 -122.78902 2957 ft 158 kts 299°
2026-04-29 21:30 42.25595 -122.80184 2953 ft 159 kts 305°
2026-04-29 21:30 42.26254 -122.81353 2992 ft 158 kts 310°
2026-04-29 21:31 42.26959 -122.82487 3028 ft 157 kts 309°
2026-04-29 21:31 42.27758 -122.83567 2862 ft 168 kts 328°
2026-04-29 21:31 42.28874 -122.84053 2766 ft 171 kts 350°
2026-04-29 21:31 42.30061 -122.84244 2665 ft 171 kts 352°
2026-04-29 21:32 42.31225 -122.84410 2607 ft 163 kts 353°
2026-04-29 21:32 42.32332 -122.84598 2439 ft 159 kts 347°
2026-04-29 21:32 42.33383 -122.85104 2183 ft 160 kts 334°
2026-04-29 21:32 42.34344 -122.85688 1904 ft 144 kts 338°
2026-04-29 21:33 42.35268 -122.86117 1630 ft 137 kts 337°
2026-04-29 21:33 42.36118 -122.86604 1434 ft 131 kts 336°
2026-04-29 21:33 42.36936 -122.87026 1339 ft 109 kts 336°
2026-04-29 21:33 42.37274 -122.87215 1339 ft 20 kts 339°
2026-04-29 21:34 42.37293 -122.87321 1339 ft 12 kts 246°
2026-04-29 21:34 42.37234 -122.87349 1339 ft 11 kts 162°
2026-04-29 21:34 42.37204 -122.87391 1339 ft 9 kts 291°
2026-04-29 21:34 42.37245 -122.87520 1339 ft 13 kts 289°
2026-04-29 21:35 42.37196 -122.87533 1339 ft 11 kts 154°
2026-04-29 21:35 42.37109 -122.87477 1339 ft 16 kts 154°
2026-04-29 21:35 42.37042 -122.87434 1339 ft 8 kts 153°
2026-04-29 21:35 42.37015 -122.87439 1339 ft 6 kts 210°
2026-04-29 21:36 42.37004 -122.87445 1339 ft 0 kts 191°